This demonstration page uses our WeatherBlox Daily Observations layout. Learn more.

38.89511, -77.03637

Hourly Observations for March 1, 2015

Temp ( °F °C ) Dew Point ( °F °C ) Humidity (%) Winds ( mph kmh ) Pressure ( in mb ) Visibility ( mi km ) Precip ( " mm )
12:52 am 00:52 Mostly Cloudy 26 -3.3 11 -11.7 53 53 Calm 30.73 1041 10 16.0934 0 0
1:52 am 01:52 Mostly Cloudy 26 -3.3 10 -12.2 51 51 Calm 30.73 1041 10 16.0934 0 0
2:52 am 02:52 Cloudy 27 -2.8 13 -10.6 55 55 S 3 6 30.7 1040 10 16.0934 0 0
3:52 am 03:52 Cloudy 27 -2.8 13 -10.6 55 55 SSE 5 7 30.68 1039 10 16.0934 0 0
4:52 am 04:52 Cloudy 27 -2.8 14 -10 58 58 S 6 9 30.66 1038 10 16.0934 0 0
5:52 am 05:52 Cloudy 28 -2.2 15 -9.4 58 58 S 5 7 30.66 1038 10 16.0934 0 0
6:52 am 06:52 Cloudy 28 -2.2 15 -9.4 58 58 SSW 5 7 30.67 1039 10 16.0934 0 0
7:52 am 07:52 Cloudy 29 -1.7 16 -8.9 58 58 S 5 7 30.66 1038 10 16.0934 0 0
8:21 am 08:21 Cloudy 28 -2 18 -8 64 64 S 6 9 30.68 1039 9 14.48406 0.01 0.254
8:41 am 08:41 Cloudy 28 -2 18 -8 64 64 S 6 9 30.68 1039 6 9.65604 0.01 0.254
8:52 am 08:52 Cloudy 29 -1.7 19 -7.2 66 66 S 6 9 30.66 1038 6 9.65604 0.02 0.508
9:00 am 09:00 Cloudy 28 -2 19 -7 69 69 S 8 13 30.65 1038 6 9.65604 0 0
9:14 am 09:14 Cloudy 28 -2 19 -7 69 69 S 7 11 30.65 1038 6 9.65604 0 0
9:35 am 09:35 Cloudy 28 -2 19 -7 69 69 S 8 13 30.65 1038 7 11.26538 0.02 0.508
9:52 am 09:52 Cloudy 29 -1.7 20 -6.7 69 69 S 8 13 30.65 1038 7 11.26538 0.02 0.508
9:59 am 09:59 Cloudy 28 -2 21 -6 74 74 S 8 13 30.65 1038 5 8.0467 0.01 0.254
10:08 am 10:08 Cloudy 28 -2 21 -6 74 74 S 8 13 30.65 1038 5 8.0467 0 0
10:16 am 10:16 Cloudy with Light Freezing Rain 28 -2 21 -6 74 74 S 7 11 30.62 1037 6 9.65604 0.02 0.508
10:39 am 10:39 Cloudy with Light Freezing Rain 28 -2 23 -5 80 80 S 8 13 30.62 1037 6 9.65604 0.03 0.762
10:46 am 10:46 Cloudy with Light Freezing Rain 28 -2 23 -5 80 80 SSW 7 11 30.62 1037 8 12.87472 0.03 0.762
10:52 am 10:52 Cloudy with Light Freezing Rain 29 -1.7 23 -5 78 78 SSW 7 11 30.61 1037 7 11.26538 0.03 0.762
11:01 am 11:01 Cloudy 28 -2 23 -5 80 80 SSW 7 11 30.62 1037 5 8.0467 0.01 0.254
11:20 am 11:20 Cloudy 28 -2 23 -5 80 80 S 6 9 30.59 1036 3 4.82802 0 0
11:39 am 11:39 Cloudy with Light Freezing Rain 30 -1 25 -4 80 80 S 7 11 30.59 1036 4 6.43736 0 0
11:49 am 11:49 Cloudy with Light Freezing Rain 30 -1 25 -4 80 80 S 7 11 30.59 1036 6 9.65604 0.06 1.524
11:52 am 11:52 Cloudy with Light Freezing Rain 30 -1.1 24 -4.4 79 79 S 6 9 30.58 1036 6 9.65604 0.06 1.524
12:15 pm 12:15 Cloudy 30 -1 25 -4 80 80 SSW 5 7 30.56 1035 8 12.87472 0.01 0.254
12:37 pm 12:37 Cloudy with Light Freezing Rain 30 -1 25 -4 80 80 SW 6 9 30.56 1035 4 6.43736 0.02 0.508
12:52 pm 12:52 Cloudy with Light Freezing Rain 30 -1.1 25 -3.9 82 82 SSW 5 7 30.53 1034 4 6.43736 0.04 1.016
1:21 pm 13:21 Cloudy with Light Freezing Rain 30 -1 25 -4 80 80 Calm 30.5 1033 4 6.43736 0.03 0.762
1:48 pm 13:48 Cloudy with Light Freezing Rain 30 -1 25 -4 80 80 SSE 5 7 30.48 1032 4 6.43736 0 0
1:52 pm 13:52 Cloudy with Light Freezing Rain 30 -1 27 -3 86 86 S 5 7 30.48 1032 4 6.43736 0 0
2:18 pm 14:18 Cloudy with Light Freezing Rain 30 -1 27 -3 86 86 S 8 13 30.45 1031 3 4.82802 0 0
2:42 pm 14:42 Cloudy with Light Freezing Rain 30 -1 27 -3 86 86 S 8 13 30.45 1031 4 6.43736 0 0
2:52 pm 14:52 Cloudy with Light Freezing Rain 31 -0.6 26 -3.3 82 82 S 9 15 30.44 1031 4 6.43736 0.06 1.524
2:55 pm 14:55 Cloudy with Light Freezing Rain 30 -1 27 -3 86 86 S 9 15 30.45 1031 4 6.43736 0 0.0254
3:16 pm 15:16 Cloudy with Light Freezing Rain 32 0 27 -3 80 80 S 7 11 30.42 1030 3 4.82802 0.04 1.016
3:52 pm 15:52 Cloudy with Light Freezing Rain 32 0 27 -2.8 82 82 S 10 17 30.4 1029 5 8.0467 0.07 1.778
4:08 pm 16:08 Cloudy with Light Freezing Rain 32 0 28 -2 87 87 S 9 15 30.39 1029 10 16.0934 0 0
4:25 pm 16:25 Cloudy with Light Freezing Rain 32 0 28 -2 87 87 S 7 11 30.39 1029 8 12.87472 0.01 0.254
4:27 pm 16:27 Cloudy with Light Freezing Rain 34 1 28 -2 81 81 S 7 11 30.39 1029 8 12.87472 0.01 0.254
4:38 pm 16:38 Cloudy with Light Rain 34 1 28 -2 81 81 S 8 13 30.39 1029 5 8.0467 0 0
4:49 pm 16:49 Cloudy with Light Freezing Rain 34 1 28 -2 81 81 S 9 15 30.39 1029 6 9.65604 0.03 0.762
4:52 pm 16:52 Cloudy with Light Rain 33 0.6 28 -2.2 82 82 S 8 13 30.38 1029 5 8.0467 0.03 0.762
5:11 pm 17:11 Cloudy with Light Rain 34 1 28 -2 81 81 S 9 15 30.39 1029 5 8.0467 0.03 0.762
5:52 pm 17:52 Cloudy with Light Rain 33 0.6 29 -1.7 85 85 S 8 13 30.34 1027 5 8.0467 0.07 1.778
6:52 pm 18:52 Mostly Clear 30 -1 9 -13 40 40 S 3 6 30.77 1042 10 16.0934 0 0
6:55 pm 18:55 Cloudy with Light Rain 34 1 28 -2 81 81 S 6 9 30.33 1027 10 16.0934 0 0.0254
7:25 pm 19:25 Cloudy with Light Rain 34 1 28 -2 81 81 SSW 3 6 30.33 1027 10 16.0934 0 0.0254
7:52 pm 19:52 Cloudy with Light Rain 34 1.1 29 -1.7 82 82 SSW 6 9 30.3 1026 10 16.0934 0 0.0254
8:31 pm 20:31 Cloudy with Light Rain 34 1 28 -2 81 81 SSW 5 7 30.27 1025 10 16.0934 0 0.0254
8:52 pm 20:52 Cloudy with Light Rain 34 1.1 29 -1.7 82 82 SSW 7 11 30.27 1025 10 16.0934 0 0.0254
9:52 pm 21:52 Cloudy with Light Rain 34 1.1 29 -1.7 82 82 S 6 9 30.25 1024 7 11.26538 0 0.0254
10:03 pm 22:03 Cloudy 34 1 30 -1 87 87 S 5 7 30.24 1024 7 11.26538 0 0
10:52 pm 22:52 Cloudy with Mist and Fog 34 1.1 30 -1.1 85 85 SW 5 7 30.24 1024 5 8.0467 0 0.0254
11:06 pm 23:06 Mostly Cloudy with Mist and Fog 34 1 30 -1 87 87 SSW 5 7 30.21 1023 2.5 4.02335 0 0
11:34 pm 23:34 Mostly Cloudy with Mist and Fog 34 1 30 -1 87 87 S 6 9 30.18 1022 1 1.60934 0 0
11:52 pm 23:52 Mostly Cloudy with Mist and Fog 34 1.1 30 -1.1 85 85 S 6 9 30.19 1022 0.75 1.207005 0 0

Powered by AerisWeather